EW5297 Weather Reports


Display with metric or nautical units.
time (UTC)temp
F
wind
direction
speed
MPH
gust
MPH
rain 1hr
in
rain 24hr
in
rain mn
in
humidity
%
barometer
mb
20260502190323 61 267 0.0 0.0 0.16 0.47 0.05 94 104.1
20260502184820 61 267 0.0 0.0 0.20 0.47 0.05 94
20260502183320 61 267 0.0 0.0 0.16 0.43 0.04 94 838.3
20260502181838 61 267 0.0 0.0 0.16 0.43 0.04 93 827.2
20260502180312 61 262 0.0 0.0 0.08 0.31 0.02 94 1020.4
20260502170331 61 336 0.0 0.0 0.00 0.24 0.00 93 753.4
20260502163348 61 336 0.0 0.0 0.00 0.24 0.00 93 1021.1
20260502161846 61 336 0.0 0.0 0.00 0.24 0.00 93
20260502160343 61 336 0.0 0.0 0.00 0.24 0.00 93 1080.3
20260502151820 61 336 0.0 2.0 0.00 0.24 0.00 93 1092.6
20260502150316 61 336 0.0 0.0 0.00 0.24 0.00 93 1021.7
20260502130323 62 336 0.0 2.0 0.00 0.24 0.00 93 1022.3
20260502123344 62 336 0.0 1.0 0.00 0.24 0.05 93 1022.5
20260502121845 62 336 0.0 0.0 0.00 0.24 0.05 92 1023.1
20260502120310 62 336 0.0 0.0 0.00 0.24 0.05 92 523.4
20260502114810 62 336 0.0 0.0 0.00 0.28 0.05 92 1023.4
20260502113332 62 336 0.0 2.0 0.00 0.28 0.05 92 1023.2
20260502111816 62 336 0.0 0.0 0.08 0.28 0.05 92 1023.0
20260502110316 63 336 0.0 0.0 0.08 0.28 0.05 92 1022.6
20260502104821 63 348 0.0 0.0 0.08 0.28 0.05 92 1023.0
20260502103341 63 348 0.0 0.0 0.08 0.28 0.05 92 1022.5
20260502101822 63 348 0.0 0.0 0.04 0.20 0.03 92 1022.7
20260502100325 63 348 1.0 2.0 0.04 0.20 0.03 92 1022.8
20260502090321 63 298 0.0 0.0 0.00 0.24 0.02 91 954.5
20260502070317 65 298 0.0 0.0 0.00 0.24 0.02 88 1021.5
20260502064817 66 298 0.0 0.0 0.00 0.24 0.02 87 518.7
20260502063314 67 298 0.0 0.0 0.00 0.24 0.02 86 520.0
20260502061831 67 298 0.0 0.0 0.00 0.24 0.02 86 1021.5
20260502060330 68 171 0.0 0.0 0.00 0.24 0.02 84 519.8
20260502054849 68 171 0.0 0.0 0.00 0.28 0.02 80 519.8
20260502053309 69 160 0.0 3.0 0.00 0.28 0.02 79 1021.2
20260502051827 69 136 3.0 7.0 0.00 0.28 0.02 77 1021.2
20260502050324 69 188 3.0 5.0 0.00 0.28 0.02 80 1021.2
20260502044825 70 156 1.0 3.0 0.00 0.43 0.02 77 1021.2
20260502043322 71 161 5.0 11.0 0.00 0.43 0.02 74 1021.1
20260502041819 69 171 2.0 3.0 0.00 0.43 0.02 77 1021.5
20260502040342 70 137 1.0 8.0 0.00 0.43 0.02 75 550.3
20260502034819 70 184 4.0 9.0 0.00 0.43 0.02 75 1051.9
20260502033322 71 173 3.0 7.0 0.00 0.43 0.02 77 1021.5
20260502031820 71 168 4.0 11.0 0.00 0.43 0.02 75 1021.6
20260502030318 71 151 1.0 4.0 0.00 0.43 0.02 79 1021.7
20260502024818 70 165 3.0 7.0 0.00 0.43 0.02 81 1021.8
20260502023317 70 175 4.0 7.0 0.00 0.43 0.02 82 1022.2
20260502021815 70 145 3.0 7.0 0.04 0.43 0.02 83 1022.7
20260502020312 69 148 1.0 4.0 0.04 0.43 0.02 85 1022.8
20260502014809 69 232 1.0 3.0 0.04 0.43 0.02 86 1023.1
20260502013312 68 172 0.0 2.0 0.04 0.43 0.02 88 1023.5
20260502011809 68 149 1.0 10.0 0.00 0.39 0.02 86 1023.9
20260502010328 69 151 3.0 8.0 0.00 0.39 0.02 80 1023.8
20260502004826 68 173 0.0 2.0 0.00 0.39 0.02 85 1024.2
20260502003343 68 153 0.0 2.0 0.00 0.39 0.02 86 1024.2
20260502001825 68 147 3.0 4.0 0.00 0.39 0.02 87 -109.5
20260502000321 67 168 2.0 4.0 0.00 0.39 0.02 90 1024.3
20260501234818 66 157 1.0 3.0 0.00 0.43 0.02 93 1024.5
20260501233320 65 154 1.0 2.0 0.00 0.43 0.02 94 1024.3
20260501231818 64 346 0.0 0.0 0.00 0.43 0.02 94 1024.4
20260501230315 64 346 0.0 0.0 0.00 0.43 0.02 94 1024.5
20260501224817 64 346 0.0 0.0 0.00 0.43 0.02 94 1024.6
20260501223310 64 346 0.0 0.0 0.00 0.43 0.02 94 1024.6
20260501221812 63 346 0.0 2.0 0.00 0.43 0.02 94 1024.6
20260501220312 63 346 0.0 0.0 0.00 0.43 0.02 94 1024.5
20260501214813 62 346 0.0 0.0 0.04 0.47 0.02 94 1024.5
20260501213318 62 346 0.0 0.0 0.04 0.47 0.02 94 1024.5
20260501211819 61 346 0.0 0.0 0.04 0.47 0.02 94 1024.4
20260501210324 60 346 0.0 0.0 0.04 0.47 0.02 94 1024.5
20260501204824 60 346 0.0 0.0 0.00 0.43 0.01 94 1024.4
20260501203345 60 346 0.0 0.0 0.00 0.43 0.01 94 1024.0
20260501201829 60 346 0.0 0.0 0.04 0.43 0.01 94 1095.4
20260501200326 60 346 0.0 0.0 0.04 0.43 0.01 94 1023.8
20260501194824 60 346 0.0 0.0 0.04 0.43 0.01 94 1023.5
20260501193346 59 346 0.0 0.0 0.04 0.43 0.01 94 1023.4
20260501191823 59 346 0.0 0.0 0.00 0.39 0.00 94 1094.7